Weather History for North Platte, NE

Change the Weather History Date:

Thursday, June 19, 2014

  Actual Average Record
Temperature  
Mean Temperature 67 °F 69 °F  
Max Temperature 81 °F 83 °F 104 °F (1988)
Min Temperature 53 °F 55 °F 37 °F (1976)
Degree Days  
Heating Degree Days 0 1  
Month to date heating degree days 39 44  
Since 1 June heating degree days 39 44  
Since 1 July heating degree days 6869 6679  
Cooling Degree Days 2 5  
Month to date cooling degree days 57 65  
Year to date cooling degree days 106 93  
Since 1 June cooling degree days 57 65  
Growing Degree Days 17 (Base 50)    
Moisture  
Dew Point 54 °F    
Average Humidity 62    
Maximum Humidity 93    
Minimum Humidity 30    
Precipitation  
Precipitation 0.06 in 0.11 in 1.64 in (1888)
Month to date precipitation 6.93 2.29  
Year to date precipitation 11.22 9.73  
Snow  
Snow 0.00 in 0.00 in 0.00 in ()
Month to date snowfall T 0.0  
Since 1 June snowfall T 0.0  
Since 1 July snowfall 29.8 28.5  
Snow Depth 0.00 in    
Sea Level Pressure  
Sea Level Pressure 29.95 in    
Wind  
Wind Speed 8 mph (WNW)    
Max Wind Speed 31 mph    
Max Gust Speed 43 mph    
Visibility 8 miles    
Events Fog , Rain , Thunderstorm    
T = Trace of Precipitation, MM = Missing Value Source: NWS Daily Summary

Daily Weather History Graph

Daily Weather History Graph

Search for Another Location

Airport:

Trip Planner

Search our weather history database for the weather conditions in past years. The results will help you decide how hot, cold, wet, or windy it might be!

Date:

Astronomy

Jun. 19, 2014 Rise Set
Actual Time 6:09 AM CDT 9:18 PM CDT
Civil Twilight 5:36 AM CDT 9:52 PM CDT
Nautical Twilight 4:52 AM CDT 10:35 PM CDT
Astronomical Twilight 4:01 AM CDT 11:26 PM CDT
Moon 1:19 AM CDT (6/19) 1:46 PM CDT (6/19)
Length of Visible Light 16h 15m
Length of Day
15h 08m
Waning Gibbous, 51% of the Moon is Illuminated
Jun 19
Waning Gibbous
Jun 19
Last Quarter
Jun 27
New
Jul 5
First Quarter
Jul 12
Full

Hourly Weather History & Observations

Time (CDT) Temp. Dew Point Humidity Pressure Visibility Wind Dir Wind Speed Gust Speed Precip Events Conditions
12:02 AM 61.0 °F 59.0 °F 93% 29.81 in 7.0 mi North 19.6 mph 31.1 mph 0.00 in Rain , Thunderstorm Light Thunderstorms and Rain
12:33 AM 62.1 °F 59.0 °F 90% 29.88 in 1.8 mi NNW 17.3 mph 35.7 mph 0.20 in Rain , Thunderstorm Heavy Thunderstorms and Rain
12:37 AM 62.1 °F 60.1 °F 93% 29.96 in 1.8 mi West 29.9 mph 42.6 mph 0.25 in Rain Heavy Rain
12:40 AM 60.1 °F 57.9 °F 93% 29.98 in 1.0 mi West 40.3 mph 54.1 mph 0.28 in Rain Heavy Rain
12:45 AM 57.0 °F 55.0 °F 93% 29.97 in 0.2 mi WNW 33.4 mph 54.1 mph 0.42 in Fog , Rain Heavy Rain
12:47 AM 57.2 °F 55.4 °F 94% 29.98 in 0.2 mi NW 26.5 mph 54.1 mph 0.64 in Fog , Rain , Thunderstorm Heavy Thunderstorms and Rain
12:53 AM 57.9 °F 57.9 °F 100% 29.93 in 0.5 mi WNW 15.0 mph 39.1 mph 1.06 in Fog , Rain , Thunderstorm Heavy Thunderstorms and Rain
12:59 AM 59.0 °F 59.0 °F 100% 30.02 in 1.5 mi WNW 18.4 mph - 0.10 in Rain , Thunderstorm Light Thunderstorms and Rain
1:02 AM 59.0 °F 57.9 °F 96% 30.02 in 3.0 mi NW 31.1 mph 42.6 mph 0.10 in Rain , Thunderstorm Light Thunderstorms and Rain
1:09 AM 57.9 °F 57.0 °F 97% 29.98 in 5.0 mi NNW 25.3 mph 42.6 mph 0.12 in Rain , Thunderstorm Rain
2:53 AM 57.9 °F 53.1 °F 84% 29.90 in 10.0 mi NW 11.5 mph - 0.02 in Rain Light Rain
3:53 AM 57.0 °F 52.0 °F 83% 29.90 in 10.0 mi NNW 15.0 mph - 0.00 in   Clear
4:53 AM 57.2 °F 51.8 °F 82% 29.97 in 10.0 mi North 10.4 mph - N/A   Partly Cloudy
5:53 AM 55.9 °F 51.1 °F 84% 29.87 in 10.0 mi NNE 3.5 mph - N/A   Clear
6:53 AM 54.0 °F 51.1 °F 90% 29.91 in 10.0 mi West 4.6 mph - N/A   Clear
7:53 AM 60.1 °F 52.0 °F 75% 29.93 in 10.0 mi West 6.9 mph - N/A   Clear
8:53 AM 63.0 °F 54.0 °F 72% 29.96 in 10.0 mi West 11.5 mph - N/A   Clear
10:53 AM 68.0 °F 55.0 °F 63% 29.96 in 10.0 mi WSW 8.1 mph - N/A   Clear
11:53 AM 71.1 °F 54.0 °F 55% 29.97 in 10.0 mi WSW 8.1 mph - N/A   Clear
12:53 PM 73.9 °F 53.1 °F 48% 29.99 in 10.0 mi WNW 6.9 mph - N/A   Clear
1:53 PM 77.0 °F 53.1 °F 43% 29.97 in 10.0 mi NW 8.1 mph - N/A   Clear
2:53 PM 78.1 °F 50.0 °F 37% 29.96 in 10.0 mi WNW 11.5 mph - N/A   Clear
3:53 PM 79.0 °F 48.9 °F 35% 29.95 in 10.0 mi WSW 8.1 mph - N/A   Clear
4:53 PM 80.1 °F 46.0 °F 30% 29.94 in 10.0 mi West 8.1 mph - N/A   Clear
5:53 PM 80.1 °F 48.9 °F 34% 29.94 in 10.0 mi NW 6.9 mph - N/A   Clear
6:53 PM 80.1 °F 48.0 °F 32% 29.94 in 10.0 mi Calm Calm - N/A   Clear
7:53 PM 78.1 °F 52.0 °F 40% 29.94 in 10.0 mi SE 3.5 mph - N/A   Clear
8:53 PM 71.1 °F 61.0 °F 70% 29.96 in 10.0 mi SE 4.6 mph - N/A   Clear
9:53 PM 66.0 °F 53.1 °F 63% 29.97 in 10.0 mi SE 6.9 mph - N/A   Clear
10:53 PM 61.0 °F 55.0 °F 81% 30.00 in 10.0 mi East 6.9 mph - N/A   Clear
11:53 PM 60.1 °F 55.0 °F 83% 30.00 in 10.0 mi ESE 5.8 mph - N/A   Clear